Location: Dehesa de la Cepeda
(40.6574°N, 4.3013°W)
Time: 19:55:32
(UTC+00:00)

ERS-1 Rocket - Pass Details

Date: 05 July 2020
Orbit: 752 x 758 km, 98.5° (Epoch: 05 August)

Event Time Altitude Azimuth Distance (km) Brightness Sun altitude
Exits shadow 22:36:50 26° 217° (SW) 1,463 4.2 -22.1°
Maximum altitude 22:38:53 37° 262° (W) 1,177 4.1 -22.3°
Drops below altitude 10° 22:43:33 10° 330° (NNW) 2,295 6.6 -22.7°
Sets 22:46:02 0° 338° (NNW) 3,224 7.7 -22.9°
